Weather History for Murcia Airport, Spain

Change the Weather History Date:

Thursday, January 16, 2014

  Actual Average Record
Temperature  
Mean Temperature 54 °F -  
Max Temperature 63 °F 59 °F 71 °F (2008)
Min Temperature 46 °F 43 °F 37 °F (1999)
Degree Days  
Heating Degree Days 10    
Growing Degree Days 4 (Base 50)    
Moisture  
Dew Point 53 °F    
Average Humidity 89    
Maximum Humidity 100    
Minimum Humidity 66    
Precipitation  
Precipitation 0.01 in 0.03 in - ()
Sea Level Pressure  
Sea Level Pressure 29.86 in    
Wind  
Wind Speed 2 mph ()    
Max Wind Speed 8 mph    
Max Gust Speed -    
Visibility 6.2 miles    
Events Rain    
Averages and records for this station are not official NWS values.
T = Trace of Precipitation, MM = Missing Value Source: Averaged Metar Reports

Daily Weather History Graph

Daily Weather History Graph

Search for Another Location

Airport:

Trip Planner

Search our weather history database for the weather conditions in past years. The results will help you decide how hot, cold, wet, or windy it might be!

Date:

Astronomy

Jan. 16, 2014 Rise Set
Actual Time 8:17 AM CET 6:09 PM CET
Civil Twilight 7:48 AM CET 6:37 PM CET
Nautical Twilight 7:16 AM CET 7:09 PM CET
Astronomical Twilight 6:44 AM CET 7:41 PM CET
Moon 6:45 PM CET (1/16) 8:03 AM CET (1/16)
Length of Visible Light 10h 49m
Length of Day
9h 51m
Full, 100% of the Moon is Illuminated
Jan 16
Full
Jan 24
Last Quarter
Jan 30
New
Feb 6
First Quarter
Feb 15
Full

Hourly Weather History & Observations

Time (CET) Temp. Dew Point Humidity Pressure Visibility Wind Dir Wind Speed Gust Speed Precip Events Conditions
7:00 AM 47 °F 46 °F 92% 29.90 in 12 mi Calm Calm - -   Mostly Cloudy
7:00 AM 46.4 °F 46.4 °F 100% 29.89 in - NW 1.2 mph - N/A   Clear
8:00 AM 48.2 °F 48.2 °F 100% 29.89 in - West 3.5 mph - N/A   Clear
9:00 AM 50.0 °F 48.2 °F 94% 29.89 in - Variable 1.2 mph - N/A   Clear
10:00 AM 51 °F 48 °F 87% 29.91 in 6 mi WSW 3.5 mph - -   Overcast
10:00 AM 51.8 °F 48.2 °F 88% 29.89 in - WSW 2.3 mph - N/A   Clear
11:00 AM 55.4 °F 50.0 °F 82% 29.92 in - West 4.6 mph - N/A   Clear
12:00 PM 60.8 °F 55.4 °F 82% 29.89 in - SW 6.9 mph - N/A   Clear
1:00 PM 62 °F 54 °F 66% 29.88 in 6 mi West 3.5 mph - -   Overcast
1:00 PM 62.6 °F 53.6 °F 72% 29.86 in - West 3.5 mph - N/A   Clear
2:00 PM 59.0 °F 55.4 °F 88% 29.86 in 4.3 mi Variable 1.2 mph - N/A Rain Light Rain
3:00 PM 59.0 °F 55.4 °F 88% 29.83 in 3.7 mi Variable 1.2 mph - N/A Rain Light Rain
4:00 PM 58 °F 54 °F 84% 29.83 in 6 mi South 3.5 mph - -   Partly Cloudy
4:00 PM 59.0 °F 55.4 °F 88% 29.83 in 5.6 mi SSW 8.1 mph - N/A   Partly Cloudy
5:00 PM 59.0 °F 57.2 °F 94% 29.80 in 5.6 mi SW 4.6 mph - N/A   Light Drizzle
6:00 PM 59.0 °F 57.2 °F 94% 29.80 in 5.6 mi SSW 5.8 mph - N/A   Light Drizzle
7:00 PM 57 °F 55 °F 91% 29.83 in 6 mi SSW 3.5 mph - -   Partly Cloudy
7:00 PM 57.2 °F 55.4 °F 94% 29.83 in 5.6 mi SW 3.5 mph - N/A   Unknown
8:00 PM 55.4 °F 55.4 °F 100% 29.83 in 5.6 mi Calm Calm - N/A   Unknown
9:00 PM 55.4 °F 55.4 °F 100% 29.80 in 5.6 mi NNW 3.5 mph - N/A   Unknown
10:00 PM 56 °F 54 °F 91% 29.83 in 9 mi North 3.5 mph - -   Overcast
10:00 PM 57.2 °F 55.4 °F 94% 29.83 in - Variable 2.3 mph - N/A   Clear